�������l�o���
Date,Time,MP-1(��Sv/h),MP-2(��Sv/h),MP-3(��Sv/h),MP-4(��Sv/h),MP-5(��Sv/h),MP-6(��Sv/h),MP-7(��Sv/h),MP-8(��Sv/h),����,����(m/s),���J
2020/01/10,00:00,0.689,0.987,0.662,1.237,0.867,0.399,0.700,0.667,�k�k��,5.5,��
2020/01/10,00:10,0.688,0.985,0.660,1.238,0.864,0.400,0.702,0.666,�k��,5.2,��
2020/01/10,00:20,0.690,0.987,0.657,1.235,0.865,0.399,0.699,0.665,�k�k��,6.4,��
2020/01/10,00:30,0.690,0.986,0.660,1.237,0.867,0.400,0.700,0.665,�k�k��,5.6,��
2020/01/10,00:40,0.689,0.988,0.659,1.236,0.866,0.399,0.700,0.665,�k�k��,6.0,��
2020/01/10,00:50,0.690,0.984,0.659,1.238,0.864,0.399,0.701,0.666,�k�k��,5.3,��
2020/01/10,01:00,0.689,0.986,0.660,1.237,0.866,0.398,0.700,0.667,�k�k��,6.3,��
2020/01/10,01:10,0.690,0.988,0.659,1.238,0.864,0.398,0.702,0.665,�k�k��,6.6,��
2020/01/10,01:20,0.690,0.986,0.658,1.235,0.864,0.400,0.701,0.665,�k�k��,6.1,��
2020/01/10,01:30,0.690,0.985,0.660,1.238,0.865,0.399,0.702,0.668,�k�k��,7.1,��
2020/01/10,01:40,0.689,0.988,0.659,1.237,0.866,0.398,0.702,0.666,�k�k��,6.3,��
2020/01/10,01:50,0.689,0.987,0.659,1.237,0.865,0.399,0.701,0.665,�k�k��,6.9,��
2020/01/10,02:00,0.690,0.988,0.661,1.237,0.865,0.397,0.700,0.666,�k�k��,5.8,��
2020/01/10,02:10,0.689,0.986,0.659,1.239,0.865,0.400,0.701,0.666,�k��,3.5,��
2020/01/10,02:20,0.690,0.986,0.659,1.235,0.864,0.399,0.702,0.665,�k��,3.3,��
2020/01/10,02:30,0.689,0.988,0.660,1.235,0.866,0.398,0.701,0.665,�k�k��,3.8,��
2020/01/10,02:40,0.690,0.985,0.659,1.239,0.866,0.399,0.701,0.667,�k�k��,4.2,�L
2020/01/10,02:50,0.689,0.987,0.659,1.238,0.865,0.399,0.700,0.666,�k�k��,3.8,�L
2020/01/10,03:00,0.690,0.985,0.660,1.237,0.865,0.399,0.700,0.666,�k��,3.4,�L
2020/01/10,03:10,0.690,0.987,0.661,1.237,0.865,0.399,0.702,0.666,�k��,4.0,�L
2020/01/10,03:20,0.689,0.987,0.660,1.238,0.866,0.398,0.700,0.667,�k�k��,4.2,��
2020/01/10,03:30,0.690,0.984,0.660,1.239,0.865,0.398,0.702,0.665,�k��,4.1,��
2020/01/10,03:40,0.690,0.988,0.661,1.236,0.867,0.399,0.702,0.666,�k�k��,4.6,�L
2020/01/10,03:50,0.691,0.988,0.660,1.239,0.866,0.398,0.702,0.665,�k�k��,4.3,�L
2020/01/10,04:00,0.692,0.990,0.661,1.239,0.867,0.400,0.702,0.668,�k��,3.8,�L
2020/01/10,04:10,0.692,0.989,0.662,1.239,0.866,0.401,0.703,0.665,�k��,3.8,�L
2020/01/10,04:20,0.692,0.990,0.662,1.241,0.867,0.401,0.702,0.666,�k��,3.4,�L
2020/01/10,04:30,0.693,0.990,0.663,1.241,0.868,0.402,0.704,0.668,�k��,3.5,�L
2020/01/10,04:40,0.694,0.989,0.664,1.241,0.870,0.403,0.701,0.667,�k��,3.4,�L
2020/01/10,04:50,0.694,0.989,0.664,1.243,0.869,0.403,0.702,0.666,���k��,3.8,�L
2020/01/10,05:00,0.694,0.989,0.663,1.239,0.866,0.403,0.701,0.667,���k��,3.8,�L
2020/01/10,05:10,0.693,0.990,0.662,1.241,0.866,0.400,0.700,0.667,���k��,3.8,�L
2020/01/10,05:20,0.694,0.989,0.662,1.241,0.868,0.401,0.701,0.667,���k��,4.4,��
2020/01/10,05:30,0.691,0.986,0.662,1.241,0.866,0.401,0.701,0.666,�k��,4.2,��
2020/01/10,05:40,0.691,0.986,0.661,1.239,0.867,0.399,0.701,0.666,���k��,4.9,��
2020/01/10,05:50,0.691,0.987,0.661,1.236,0.868,0.400,0.700,0.667,�k��,5.2,�L
2020/01/10,06:00,0.689,0.988,0.661,1.239,0.866,0.399,0.699,0.665,�k��,4.9,�L
2020/01/10,06:10,0.690,0.983,0.661,1.236,0.865,0.400,0.700,0.666,�k��,5.0,��
2020/01/10,06:20,0.690,0.987,0.660,1.237,0.865,0.399,0.700,0.665,�k��,5.2,��
2020/01/10,06:30,0.690,0.985,0.659,1.237,0.865,0.398,0.699,0.667,�k��,5.3,��
2020/01/10,06:40,0.690,0.984,0.660,1.236,0.865,0.400,0.699,0.666,�k��,5.5,��
2020/01/10,06:50,0.689,0.985,0.659,1.238,0.865,0.399,0.702,0.665,�k��,5.5,��
2020/01/10,07:00,0.690,0.983,0.659,1.236,0.866,0.397,0.702,0.667,�k�k��,5.3,��
2020/01/10,07:10,0.690,0.985,0.658,1.238,0.864,0.398,0.699,0.667,�k�k��,5.8,��
2020/01/10,07:20,0.689,0.985,0.659,1.240,0.863,0.400,0.701,0.666,�k�k��,6.6,��
2020/01/10,07:30,0.691,0.983,0.658,1.238,0.866,0.397,0.700,0.665,�k�k��,6.3,��
2020/01/10,07:40,0.691,0.984,0.659,1.237,0.865,0.399,0.701,0.665,�k�k��,6.4,��
2020/01/10,07:50,0.689,0.984,0.660,1.237,0.865,0.398,0.700,0.666,�k�k��,6.7,��
2020/01/10,08:00,0.690,0.984,0.661,1.238,0.863,0.399,0.700,0.666,�k��,6.6,��
2020/01/10,08:10,0.688,0.986,0.658,1.239,0.867,0.400,0.700,0.668,�k�k��,6.7,��
2020/01/10,08:20,0.689,0.986,0.658,1.237,0.865,0.397,0.703,0.667,�k�k��,6.6,��
2020/01/10,08:30,0.689,0.984,0.658,1.236,0.863,0.398,0.701,0.667,�k�k��,6.0,��
2020/01/10,08:40,0.688,0.982,0.659,1.238,0.864,0.398,0.702,0.664,�k�k��,6.3,��
2020/01/10,08:50,0.690,0.982,0.660,1.238,0.865,0.398,0.701,0.666,�k�k��,6.0,��
2020/01/10,09:00,0.689,0.984,0.657,1.238,0.866,0.399,0.702,0.667,�k�k��,6.1,��
2020/01/10,09:10,0.690,0.986,0.658,1.238,0.861,0.400,0.701,0.667,�k�k��,6.6,��
2020/01/10,09:20,0.690,0.985,0.659,1.236,0.845,0.399,0.703,0.667,�k,6.0,��
2020/01/10,09:30,0.690,0.984,0.659,1.237,0.837,0.399,0.701,0.666,�k�k��,6.0,��
2020/01/10,09:40,0.691,0.982,0.659,1.237,-,0.398,0.701,0.666,�k,5.8,��
2020/01/10,09:50,0.692,0.984,0.659,1.238,-,0.398,0.701,0.665,�k,6.4,��
2020/01/10,10:00,0.690,0.983,0.659,1.240,-,0.399,0.701,0.665,�k,6.1,��
2020/01/10,10:10,0.689,0.982,0.659,1.237,-,0.398,0.702,0.667,�k�k��,7.7,��
2020/01/10,10:20,0.690,0.984,0.661,1.237,-,0.398,0.701,0.665,�k,7.5,��
2020/01/10,10:30,0.689,0.984,0.657,1.239,-,0.400,0.701,0.666,�k,8.0,��
2020/01/10,10:40,0.691,0.985,0.660,1.238,-,0.399,0.699,0.667,�k,7.4,��
2020/01/10,10:50,0.692,0.988,0.658,1.240,-,0.397,0.701,0.664,�k,7.5,��
2020/01/10,11:00,0.693,0.984,0.659,1.240,0.839,0.398,0.699,0.667,�k,7.2,��
2020/01/10,11:10,0.691,0.988,0.659,1.239,0.867,0.399,0.699,0.667,�k�k��,6.9,��
2020/01/10,11:20,0.693,0.986,0.662,1.240,0.866,0.398,0.699,0.667,�k�k��,8.0,��
2020/01/10,11:30,0.691,0.985,0.662,1.241,0.870,0.400,0.700,0.666,�k,7.4,��
2020/01/10,11:40,0.691,0.982,0.661,1.242,0.868,0.399,0.699,0.669,�k,7.4,��
2020/01/10,11:50,0.692,0.983,0.661,1.241,0.868,0.399,0.700,0.667,�k,7.1,��
2020/01/10,12:00,0.691,0.984,0.661,1.243,0.867,0.399,0.700,0.667,�k,7.2,��
2020/01/10,12:10,0.693,0.988,0.661,1.239,0.869,0.400,0.702,0.667,�k�k��,7.2,��
2020/01/10,12:20,0.692,0.990,0.661,1.242,0.869,0.400,0.699,0.667,�k,6.7,��
2020/01/10,12:30,0.694,0.988,0.661,1.244,0.871,0.398,0.700,0.667,�k,6.1,��
2020/01/10,12:40,0.694,0.992,0.662,1.240,0.870,0.399,0.699,0.667,�k,6.6,��
2020/01/10,12:50,0.692,0.990,0.661,1.242,0.870,0.399,0.701,0.668,�k,6.3,��
2020/01/10,13:00,0.694,0.988,0.662,1.242,0.871,0.399,0.701,0.666,�k�k��,5.8,��
2020/01/10,13:10,0.693,0.987,0.660,1.243,0.871,0.399,0.698,0.667,�k,5.3,��
2020/01/10,13:20,0.695,0.988,0.659,1.240,0.871,0.400,0.700,0.668,�k,4.9,��
2020/01/10,13:30,0.691,0.987,0.659,1.239,0.871,0.400,0.700,0.668,�k,4.7,��
2020/01/10,13:40,0.693,0.989,0.660,1.240,0.873,0.399,0.700,0.668,�k,3.9,��
2020/01/10,13:50,0.693,0.991,0.660,1.242,0.871,0.399,0.700,0.667,�k,5.2,��
2020/01/10,14:00,0.694,0.989,0.657,1.242,0.872,0.400,0.700,0.668,�k,5.2,�L
2020/01/10,14:10,0.692,0.989,0.659,1.243,0.872,0.400,0.701,0.667,�k,3.8,�L
2020/01/10,14:20,0.694,0.988,0.659,1.240,0.871,0.398,0.699,0.666,�k,4.4,��
2020/01/10,14:30,0.696,0.991,0.654,1.241,0.872,0.399,0.700,0.668,�k,3.5,��
2020/01/10,14:40,0.694,0.990,0.658,1.240,0.872,0.399,0.701,0.668,�k,4.1,��
2020/01/10,14:50,0.693,0.991,0.656,1.242,0.873,0.400,0.699,0.667,�k,3.8,��
2020/01/10,15:00,0.695,0.988,0.661,1.243,0.871,0.399,0.699,0.668,�k,3.2,��
2020/01/10,15:10,0.695,0.992,0.661,1.242,0.872,0.399,0.701,0.668,�k,3.1,��
2020/01/10,15:20,0.694,0.990,0.663,1.242,0.873,0.399,0.700,0.668,�k,2.5,��
2020/01/10,15:30,0.692,0.991,0.662,1.242,0.871,0.399,0.701,0.667,�k,2.6,�L
2020/01/10,15:40,0.691,0.989,0.659,1.241,0.872,0.399,0.700,0.667,�k,2.0,��
2020/01/10,15:50,0.694,0.990,0.661,1.242,0.871,0.398,0.701,0.667,�k�k��,2.6,��
2020/01/10,16:00,0.692,0.993,0.661,1.243,0.871,0.398,0.700,0.667,�k�k��,2.8,��
2020/01/10,16:10,0.693,0.991,0.662,1.239,0.871,0.399,0.699,0.668,�k�k��,2.5,��
2020/01/10,16:20,0.692,0.992,0.661,1.242,0.873,0.400,0.701,0.666,�k�k��,2.7,��
2020/01/10,16:30,0.692,0.993,0.659,1.243,0.871,0.399,0.700,0.666,�k�k��,2.7,��
2020/01/10,16:40,0.692,0.991,0.660,1.242,0.870,0.400,0.702,0.668,�k��,2.4,��
2020/01/10,16:50,0.693,0.990,0.659,1.244,0.870,0.400,0.703,0.667,�k��,2.9,�L
2020/01/10,17:00,0.692,0.992,0.662,1.244,0.871,0.399,0.700,0.669,�k��,2.4,�L
2020/01/10,17:10,0.694,0.992,0.660,1.242,0.870,0.399,0.700,0.666,�k��,2.9,��
2020/01/10,17:20,0.692,0.994,0.661,1.239,0.871,0.401,0.702,0.667,���k��,2.8,��
2020/01/10,17:30,0.691,0.991,0.661,1.240,0.870,0.400,0.702,0.666,��,3.3,��
2020/01/10,17:40,0.692,0.992,0.661,1.242,0.871,0.400,0.702,0.668,���k��,2.5,��
2020/01/10,17:50,0.693,0.993,0.659,1.243,0.869,0.398,0.700,0.667,���k��,2.6,��
2020/01/10,18:00,0.693,0.991,0.661,1.243,0.870,0.399,0.701,0.668,���k��,2.6,��
2020/01/10,18:10,0.690,0.992,0.661,1.241,0.870,0.398,0.702,0.665,���k��,2.6,��
2020/01/10,18:20,0.691,0.993,0.661,1.241,0.871,0.400,0.703,0.665,���k��,2.1,��
2020/01/10,18:30,0.693,0.991,0.662,1.242,0.872,0.399,0.701,0.667,���k��,2.3,��
2020/01/10,18:40,0.692,0.994,0.661,1.243,0.873,0.399,0.701,0.667,�k��,1.8,��
2020/01/10,18:50,0.693,0.992,0.663,1.243,0.870,0.397,0.701,0.668,�k��,1.0,��
2020/01/10,19:00,0.692,0.990,0.662,1.244,0.872,0.400,0.702,0.666,�k��,1.5,��
2020/01/10,19:10,0.691,0.991,0.660,1.242,0.870,0.400,0.703,0.668,���k��,1.7,��
2020/01/10,19:20,0.693,0.992,0.661,1.244,0.872,0.399,0.701,0.667,�k��,1.5,��
2020/01/10,19:30,0.690,0.989,0.659,1.243,0.872,0.399,0.704,0.666,�k��,1.2,��
2020/01/10,19:40,0.691,0.992,0.662,1.243,0.873,0.400,0.703,0.667,�k��,1.4,��
2020/01/10,19:50,0.693,0.994,0.661,1.242,0.871,0.399,0.702,0.667,���k��,2.0,��
2020/01/10,20:00,0.691,0.990,0.660,1.243,0.873,0.400,0.702,0.669,���k��,2.7,��
2020/01/10,20:10,0.692,0.992,0.661,1.242,0.872,0.400,0.702,0.667,���k��,2.6,��
2020/01/10,20:20,0.692,0.992,0.663,1.246,0.873,0.399,0.702,0.667,���k��,1.4,��
2020/01/10,20:30,0.692,0.993,0.661,1.243,0.873,0.400,0.702,0.667,���k��,1.8,��
2020/01/10,20:40,0.692,0.994,0.663,1.244,0.872,0.399,0.701,0.668,���k��,1.6,��
2020/01/10,20:50,0.692,0.993,0.660,1.242,0.871,0.399,0.701,0.666,���k��,1.7,��
2020/01/10,21:00,0.692,0.992,0.661,1.245,0.870,0.400,0.701,0.667,���k��,1.4,��
2020/01/10,21:10,0.694,0.991,0.662,1.245,0.872,0.400,0.701,0.668,-,CALM,��
2020/01/10,21:20,0.691,0.992,0.661,1.243,0.873,0.401,0.701,0.668,���k��,1.0,��
2020/01/10,21:30,0.690,0.991,0.662,1.242,0.871,0.400,0.701,0.668,�k��,1.2,��
2020/01/10,21:40,0.692,0.990,0.662,1.242,0.873,0.399,0.701,0.668,�k��,1.3,��
2020/01/10,21:50,0.691,0.993,0.661,1.244,0.872,0.401,0.701,0.667,���k��,1.2,��
2020/01/10,22:00,0.691,0.993,0.661,1.244,0.870,0.399,0.701,0.667,��,2.1,��
2020/01/10,22:10,0.690,0.993,0.660,1.241,0.873,0.400,0.701,0.666,��,1.9,��
2020/01/10,22:20,0.691,0.992,0.662,1.245,0.872,0.399,0.700,0.666,��,1.8,��
2020/01/10,22:30,0.690,0.993,0.662,1.243,0.873,0.399,0.701,0.667,���쐼,1.4,��
2020/01/10,22:40,0.693,0.991,0.661,1.243,0.873,0.400,0.702,0.666,���쐼,1.4,��
2020/01/10,22:50,0.690,0.990,0.660,1.244,0.873,0.399,0.702,0.668,���쐼,0.9,��
2020/01/10,23:00,0.692,0.991,0.662,1.243,0.873,0.401,0.703,0.669,���k��,0.9,��
2020/01/10,23:10,0.692,0.992,0.660,1.244,0.872,0.400,0.700,0.667,���쐼,1.8,��
2020/01/10,23:20,0.692,0.994,0.661,1.245,0.872,0.400,0.700,0.667,���쐼,2.0,��
2020/01/10,23:30,0.692,0.993,0.661,1.243,0.872,0.400,0.702,0.667,�쐼,1.3,��
2020/01/10,23:40,0.692,0.993,0.661,1.243,0.871,0.401,0.702,0.668,���쐼,2.7,��
2020/01/10,23:50,0.693,0.989,0.660,1.243,0.873,0.398,0.703,0.667,���쐼,2.5,��
